N406LC KATW-KTEB

Flight info

Callsign N406LC
Flight time 1h 33m
Altitude 45000
Route SHIKY MONEE BERYS Q438 TWIGS JHW LVZ5
Aircraft C750/M-SBDE3FGHRWXY/S

Departure

Time 2026-05-09 02:46
Airport Appleton International Airport (KATW)

Arrival

Time 2026-05-09 04:19
Airport Teterboro Airport (KTEB)
Time Latitude Longitude Altitude Speed Heading
2026-05-09 02:21 44.26467 -88.50964 885 ft 0 kts 90°
2026-05-09 02:32 44.26469 -88.50949 885 ft 4 kts 72°
2026-05-09 02:32 44.26481 -88.50940 885 ft 2 kts
2026-05-09 02:32 44.26504 -88.50939 885 ft 1 kts 180°
2026-05-09 02:36 44.26501 -88.50942 885 ft 1 kts 206°
2026-05-09 02:36 44.26500 -88.50955 885 ft 2 kts 268°
2026-05-09 02:37 44.26504 -88.51006 885 ft 8 kts 275°
2026-05-09 02:37 44.26498 -88.51083 885 ft 7 kts 254°
2026-05-09 02:37 44.26501 -88.51141 885 ft 7 kts 289°
2026-05-09 02:37 44.26521 -88.51198 889 ft 5 kts 298°
2026-05-09 02:38 44.26536 -88.51288 892 ft 16 kts 259°
2026-05-09 02:38 44.26434 -88.51399 891 ft 20 kts 206°
2026-05-09 02:38 44.26314 -88.51480 890 ft 19 kts 206°
2026-05-09 02:38 44.26197 -88.51559 890 ft 18 kts 205°
2026-05-09 02:39 44.26092 -88.51630 891 ft 16 kts 206°
2026-05-09 02:39 44.25998 -88.51694 892 ft 14 kts 204°
2026-05-09 02:39 44.25919 -88.51747 895 ft 11 kts 206°
2026-05-09 02:39 44.25852 -88.51774 895 ft 10 kts 167°
2026-05-09 02:40 44.25795 -88.51706 894 ft 13 kts 119°
2026-05-09 02:40 44.25754 -88.51587 894 ft 14 kts 114°
2026-05-09 02:40 44.25723 -88.51501 894 ft 0 kts 117°
2026-05-09 02:43 44.25722 -88.51499 894 ft 2 kts 117°
2026-05-09 02:43 44.25704 -88.51450 894 ft 10 kts 116°
2026-05-09 02:43 44.25660 -88.51324 895 ft 19 kts 117°
2026-05-09 02:43 44.25599 -88.51151 895 ft 23 kts 116°
2026-05-09 02:44 44.25530 -88.50958 897 ft 21 kts 116°
2026-05-09 02:44 44.25469 -88.50777 895 ft 21 kts 114°
2026-05-09 02:44 44.25412 -88.50704 896 ft 1 kts 189°
2026-05-09 02:44 44.25411 -88.50705 896 ft 0 kts 190°
2026-05-09 02:45 44.25406 -88.50707 897 ft 2 kts 198°
2026-05-09 02:45 44.25371 -88.50733 898 ft 10 kts 214°
2026-05-09 02:45 44.25363 -88.50839 899 ft 14 kts 295°
2026-05-09 02:45 44.25433 -88.51037 903 ft 41 kts 296°
2026-05-09 02:46 44.25708 -88.51814 894 ft 133 kts 296°
2026-05-09 02:46 44.26154 -88.53067 1276 ft 144 kts 297°
2026-05-09 02:46 44.26626 -88.54346 1805 ft 156 kts 298°
2026-05-09 02:46 44.27135 -88.55703 2459 ft 159 kts 292°
2026-05-09 02:47 44.27259 -88.57291 2939 ft 176 kts 263°
2026-05-09 02:47 44.26848 -88.58932 3548 ft 182 kts 238°
2026-05-09 02:47 44.25920 -88.60106 4250 ft 185 kts 206°
2026-05-09 02:47 44.24581 -88.60307 4674 ft 211 kts 167°
2026-05-09 02:48 44.23275 -88.59290 5412 ft 219 kts 136°
2026-05-09 02:48 44.22392 -88.57581 6357 ft 220 kts 121°
2026-05-09 02:48 44.21626 -88.55693 7215 ft 225 kts 119°
2026-05-09 02:48 44.20926 -88.53697 8044 ft 235 kts 113°
2026-05-09 02:49 44.20377 -88.51506 8889 ft 243 kts 106°
2026-05-09 02:49 44.19996 -88.49178 9741 ft 251 kts 100°
2026-05-09 02:49 44.19761 -88.46629 10033 ft 282 kts 95°
2026-05-09 02:49 44.19623 -88.43848 10558 ft 298 kts 97°
2026-05-09 02:50 44.19030 -88.40951 10699 ft 325 kts 109°
2026-05-09 02:50 44.18396 -88.37812 11066 ft 342 kts 103°
2026-05-09 02:50 44.17861 -88.34588 11924 ft 343 kts 103°
2026-05-09 02:50 44.17216 -88.31371 12634 ft 347 kts 108°
2026-05-09 02:51 44.16443 -88.28212 13341 ft 351 kts 109°
2026-05-09 02:51 44.15681 -88.24962 14028 ft 355 kts 107°
2026-05-09 02:51 44.14976 -88.21643 14709 ft 359 kts 106°
2026-05-09 02:51 44.14255 -88.18305 15361 ft 362 kts 107°
2026-05-09 02:52 44.13491 -88.14946 16005 ft 366 kts 108°
2026-05-09 02:52 44.12722 -88.11556 16649 ft 369 kts 107°
2026-05-09 02:52 44.11961 -88.08126 17291 ft 373 kts 107°
2026-05-09 02:52 44.11195 -88.04678 17934 ft 376 kts 107°
2026-05-09 02:53 44.10407 -88.01180 18568 ft 380 kts 107°
2026-05-09 02:53 44.09611 -87.97652 19200 ft 383 kts 107°
2026-05-09 02:53 44.08812 -87.94097 19832 ft 387 kts 107°
2026-05-09 02:53 44.08006 -87.90514 20459 ft 390 kts 107°
2026-05-09 02:54 44.07187 -87.86895 21066 ft 394 kts 107°
2026-05-09 02:54 44.06360 -87.83240 21626 ft 398 kts 107°
2026-05-09 02:54 44.05526 -87.79559 22167 ft 401 kts 107°
2026-05-09 02:54 44.04683 -87.75849 22706 ft 404 kts 107°
2026-05-09 02:55 44.03834 -87.72115 23235 ft 407 kts 107°
2026-05-09 02:55 44.02976 -87.68347 23760 ft 410 kts 107°
2026-05-09 02:55 44.02122 -87.64607 24268 ft 413 kts 107°
2026-05-09 02:55 44.01237 -87.60736 24783 ft 416 kts 107°
2026-05-09 02:56 44.00356 -87.56887 25269 ft 420 kts 108°
2026-05-09 02:56 43.99461 -87.52993 25781 ft 439 kts 109°
2026-05-09 02:56 43.98511 -87.48864 25772 ft 458 kts 109°
2026-05-09 02:56 43.97523 -87.44567 25769 ft 476 kts 109°
2026-05-09 02:57 43.96504 -87.40147 26154 ft 482 kts 109°
2026-05-09 02:57 43.95479 -87.35713 26724 ft 484 kts 109°
2026-05-09 02:57 43.94441 -87.31239 27185 ft 489 kts 110°
2026-05-09 02:57 43.93391 -87.26716 27542 ft 495 kts 110°
2026-05-09 02:58 43.92334 -87.22156 28047 ft 498 kts 110°
2026-05-09 02:58 43.91263 -87.17560 28520 ft 502 kts 111°
2026-05-09 02:58 43.90175 -87.12933 29006 ft 506 kts 111°
2026-05-09 02:58 43.89083 -87.08274 29491 ft 510 kts 111°
2026-05-09 02:59 43.87987 -87.03579 29941 ft 514 kts 111°
2026-05-09 02:59 43.86878 -86.98860 30346 ft 517 kts 111°
2026-05-09 02:59 43.85756 -86.94110 30737 ft 521 kts 112°
2026-05-09 02:59 43.84619 -86.89309 30902 ft 530 kts 112°
2026-05-09 03:00 43.83472 -86.84444 31269 ft 533 kts 112°
2026-05-09 03:00 43.82321 -86.79547 31669 ft 536 kts 112°
2026-05-09 03:00 43.81161 -86.74697 32053 ft 539 kts 112°
2026-05-09 03:00 43.79976 -86.69756 32440 ft 542 kts 112°
2026-05-09 03:01 43.78792 -86.64783 32829 ft 546 kts 112°
2026-05-09 03:01 43.77600 -86.59776 33170 ft 550 kts 112°
2026-05-09 03:01 43.76385 -86.54723 33351 ft 557 kts 112°
2026-05-09 03:01 43.75148 -86.49600 33474 ft 565 kts 112°
2026-05-09 03:02 43.73907 -86.44432 33861 ft 567 kts 112°
2026-05-09 03:02 43.72662 -86.39247 34155 ft 570 kts 112°
2026-05-09 03:02 43.71402 -86.34049 34458 ft 572 kts 112°
2026-05-09 03:02 43.70130 -86.28822 34744 ft 574 kts 112°
2026-05-09 03:03 43.68861 -86.23596 35017 ft 576 kts 112°
2026-05-09 03:03 43.67582 -86.18334 35272 ft 578 kts 112°
2026-05-09 03:03 43.66297 -86.13074 35456 ft 580 kts 112°
2026-05-09 03:03 43.65000 -86.07788 35645 ft 582 kts 112°
2026-05-09 03:04 43.63700 -86.02484 35853 ft 583 kts 111°
2026-05-09 03:04 43.62398 -85.97178 36029 ft 584 kts 111°
2026-05-09 03:04 43.61087 -85.91863 36192 ft 585 kts 111°
2026-05-09 03:04 43.59770 -85.86538 36339 ft 586 kts 111°
2026-05-09 03:05 43.58451 -85.81209 36481 ft 587 kts 111°
2026-05-09 03:05 43.57128 -85.75876 36592 ft 588 kts 111°
2026-05-09 03:05 43.55799 -85.70533 36695 ft 589 kts 111°
2026-05-09 03:06 43.53131 -85.59850 36851 ft 590 kts 112°
2026-05-09 03:06 43.50450 -85.49156 37084 ft 589 kts 112°
2026-05-09 03:06 43.49138 -85.43929 38313 ft 563 kts 111°
2026-05-09 03:07 43.48300 -85.40595 38939 ft 553 kts 111°
2026-05-09 03:07 43.46612 -85.33938 39125 ft 558 kts 111°
2026-05-09 03:07 43.45328 -85.28891 39360 ft 560 kts 111°
2026-05-09 03:07 43.44046 -85.23821 39580 ft 562 kts 111°
2026-05-09 03:08 43.42755 -85.18728 39787 ft 564 kts 111°
2026-05-09 03:08 43.41452 -85.13632 39979 ft 566 kts 111°
2026-05-09 03:08 43.40586 -85.10249 40098 ft 567 kts 111°
2026-05-09 03:08 43.39272 -85.05113 40289 ft 569 kts 111°
2026-05-09 03:09 43.37957 -84.99971 40430 ft 571 kts 111°
2026-05-09 03:09 43.36633 -84.94822 40583 ft 573 kts 111°
2026-05-09 03:09 43.35300 -84.89654 40734 ft 574 kts 111°
2026-05-09 03:09 43.33964 -84.84478 40871 ft 576 kts 111°
2026-05-09 03:10 43.32625 -84.79293 41002 ft 577 kts 111°
2026-05-09 03:10 43.31278 -84.74099 41119 ft 578 kts 111°
2026-05-09 03:10 43.29925 -84.68895 41197 ft 579 kts 111°
2026-05-09 03:10 43.28567 -84.63679 41302 ft 580 kts 111°
2026-05-09 03:11 43.27232 -84.58551 42278 ft 558 kts 111°
2026-05-09 03:11 43.25929 -84.53558 42599 ft 557 kts 111°
2026-05-09 03:11 43.24607 -84.48539 42772 ft 559 kts 111°
2026-05-09 03:11 43.23247 -84.43566 43085 ft 557 kts 113°
2026-05-09 03:12 43.21854 -84.38586 43288 ft 559 kts 112°
2026-05-09 03:12 43.20484 -84.33591 43502 ft 561 kts 112°
2026-05-09 03:12 43.19112 -84.28649 43690 ft 562 kts 112°
2026-05-09 03:12 43.17697 -84.23651 43860 ft 564 kts 113°
2026-05-09 03:13 43.14871 -84.13588 44166 ft 567 kts 112°
2026-05-09 03:13 43.13459 -84.08549 44466 ft 565 kts 112°
2026-05-09 03:13 43.12039 -84.03537 44633 ft 566 kts 113°
2026-05-09 03:14 43.10607 -83.98502 44737 ft 568 kts 112°
2026-05-09 03:14 43.09181 -83.93458 44835 ft 569 kts 112°
2026-05-09 03:14 43.06306 -83.83335 44830 ft 571 kts 113°
2026-05-09 03:15 43.03426 -83.73257 44829 ft 567 kts 113°
2026-05-09 03:15 43.00583 -83.63331 44827 ft 563 kts 113°
2026-05-09 03:16 42.97722 -83.53394 44823 ft 561 kts 113°
2026-05-09 03:16 42.94866 -83.43503 44806 ft 558 kts 113°
2026-05-09 03:17 42.92012 -83.33665 44806 ft 556 kts 113°
2026-05-09 03:17 42.89983 -83.23489 44810 ft 557 kts 100°
2026-05-09 03:18 42.88802 -83.13054 44822 ft 557 kts 101°
2026-05-09 03:18 42.87299 -83.02695 44810 ft 557 kts 101°
2026-05-09 03:19 42.85993 -82.92255 44811 ft 558 kts 101°
2026-05-09 03:19 42.84543 -82.81848 44817 ft 561 kts 102°
2026-05-09 03:20 42.83143 -82.71288 44814 ft 570 kts 101°
2026-05-09 03:20 42.81681 -82.60669 44819 ft 577 kts 102°
2026-05-09 03:21 42.80069 -82.49927 44838 ft 581 kts 103°
2026-05-09 03:21 42.78284 -82.39157 44851 ft 585 kts 104°
2026-05-09 03:22 42.76487 -82.28338 44851 ft 586 kts 104°
2026-05-09 03:22 42.74688 -82.17601 44835 ft 578 kts 104°
2026-05-09 03:23 42.72902 -82.06991 44845 ft 572 kts 104°
2026-05-09 03:23 42.71121 -81.96486 44847 ft 568 kts 104°
2026-05-09 03:24 42.69342 -81.86048 44850 ft 564 kts 104°
2026-05-09 03:24 42.67564 -81.75678 44848 ft 562 kts 104°
2026-05-09 03:25 42.65782 -81.65346 44859 ft 561 kts 104°
2026-05-09 03:25 42.64003 -81.55091 44856 ft 561 kts 104°
2026-05-09 03:26 42.62203 -81.44770 44866 ft 561 kts 104°
2026-05-09 03:26 42.60392 -81.34448 44873 ft 562 kts 105°
2026-05-09 03:27 42.58570 -81.24124 44875 ft 563 kts 105°
2026-05-09 03:27 42.56736 -81.13788 44878 ft 564 kts 105°
2026-05-09 03:28 42.54887 -81.03429 44887 ft 565 kts 105°
2026-05-09 03:28 42.53040 -80.93138 44886 ft 565 kts 105°
2026-05-09 03:29 42.51171 -80.82780 44889 ft 566 kts 105°
2026-05-09 03:29 42.49291 -80.72420 44889 ft 566 kts 105°
2026-05-09 03:30 42.47400 -80.62059 44891 ft 566 kts 105°
2026-05-09 03:30 42.45500 -80.51704 44884 ft 567 kts 105°
2026-05-09 03:31 42.43590 -80.41347 44887 ft 567 kts 105°
2026-05-09 03:31 42.41670 -80.31002 44892 ft 567 kts 105°
2026-05-09 03:32 42.39754 -80.20729 44899 ft 567 kts 105°
2026-05-09 03:32 42.38050 -80.10316 44889 ft 568 kts 97°
2026-05-09 03:33 42.37740 -79.99645 44911 ft 568 kts 90°
2026-05-09 03:33 42.36924 -79.89045 44898 ft 567 kts 102°
2026-05-09 03:34 42.35165 -79.78663 44909 ft 566 kts 105°
2026-05-09 03:34 42.32831 -79.68522 44904 ft 564 kts 112°
2026-05-09 03:35 42.30162 -79.58544 44919 ft 566 kts 109°
2026-05-09 03:35 42.27871 -79.48368 44932 ft 566 kts 110°
2026-05-09 03:36 42.25276 -79.38349 44930 ft 566 kts 110°
2026-05-09 03:36 42.22885 -79.28228 44929 ft 566 kts 110°
2026-05-09 03:37 42.20353 -79.18246 44932 ft 566 kts 111°
2026-05-09 03:37 42.17891 -79.08163 44934 ft 566 kts 110°
2026-05-09 03:38 42.15366 -78.98122 44941 ft 565 kts 111°
2026-05-09 03:38 42.12865 -78.88084 44943 ft 565 kts 110°
2026-05-09 03:39 42.10339 -78.78056 44950 ft 565 kts 111°
2026-05-09 03:39 42.07821 -78.68081 44391 ft 560 kts 110°
2026-05-09 03:40 42.06574 -78.63134 43736 ft 556 kts 111°
2026-05-09 03:40 42.05328 -78.58236 43178 ft 552 kts 111°
2026-05-09 03:40 42.04085 -78.53363 42638 ft 548 kts 111°
2026-05-09 03:40 42.02852 -78.48521 41733 ft 549 kts 111°
2026-05-09 03:41 42.01591 -78.43585 40753 ft 560 kts 111°
2026-05-09 03:41 42.00332 -78.38656 40312 ft 555 kts 112°
2026-05-09 03:41 41.99081 -78.33770 39801 ft 552 kts 112°
2026-05-09 03:41 41.97830 -78.28905 39314 ft 549 kts 112°
2026-05-09 03:42 41.96580 -78.24055 38786 ft 547 kts 112°
2026-05-09 03:42 41.95325 -78.19196 37826 ft 554 kts 112°
2026-05-09 03:42 41.94068 -78.14327 37328 ft 549 kts 112°
2026-05-09 03:42 41.92838 -78.09564 36795 ft 545 kts 112°
2026-05-09 03:43 41.91594 -78.04774 36267 ft 541 kts 112°
2026-05-09 03:43 41.90352 -78.00010 35752 ft 538 kts 112°
2026-05-09 03:43 41.89121 -77.95284 35225 ft 535 kts 112°
2026-05-09 03:43 41.87898 -77.90593 34965 ft 527 kts 112°
2026-05-09 03:44 41.86704 -77.86015 34965 ft 512 kts 112°
2026-05-09 03:44 41.85521 -77.81515 34962 ft 514 kts 112°
2026-05-09 03:44 41.83103 -77.72334 34982 ft 530 kts 112°
2026-05-09 03:45 41.80611 -77.62872 34987 ft 546 kts 112°
2026-05-09 03:45 41.78034 -77.53158 34979 ft 563 kts 112°
2026-05-09 03:46 41.76710 -77.48167 34982 ft 574 kts 112°
2026-05-09 03:46 41.75358 -77.43085 34980 ft 584 kts 112°
2026-05-09 03:46 41.72603 -77.32772 34979 ft 599 kts 112°
2026-05-09 03:47 41.69769 -77.22194 34952 ft 608 kts 112°
2026-05-09 03:47 41.66889 -77.11507 34966 ft 610 kts 112°
2026-05-09 03:48 41.64028 -77.00925 34958 ft 601 kts 112°
2026-05-09 03:48 41.61184 -76.90465 34954 ft 596 kts 112°
2026-05-09 03:49 41.58356 -76.80097 34951 ft 589 kts 112°
2026-05-09 03:49 41.56974 -76.75037 34563 ft 575 kts 112°
2026-05-09 03:49 41.55589 -76.69997 33510 ft 578 kts 112°
2026-05-09 03:50 41.54211 -76.64988 32617 ft 571 kts 112°
2026-05-09 03:50 41.52847 -76.60028 31738 ft 565 kts 112°
2026-05-09 03:50 41.51496 -76.55124 30897 ft 559 kts 112°
2026-05-09 03:50 41.50156 -76.50282 30067 ft 554 kts 112°
2026-05-09 03:51 41.48829 -76.45493 29134 ft 548 kts 112°
2026-05-09 03:51 41.47517 -76.40763 28361 ft 539 kts 112°
2026-05-09 03:51 41.46225 -76.36111 27584 ft 530 kts 112°
2026-05-09 03:51 41.44969 -76.31604 26845 ft 522 kts 113°
2026-05-09 03:52 41.43712 -76.27102 26109 ft 514 kts 113°
2026-05-09 03:52 41.42474 -76.22670 25393 ft 506 kts 113°
2026-05-09 03:52 41.41253 -76.18307 24713 ft 498 kts 113°
2026-05-09 03:52 41.40047 -76.14009 24028 ft 491 kts 113°
2026-05-09 03:53 41.38857 -76.09775 23313 ft 485 kts 113°
2026-05-09 03:53 41.37684 -76.05607 22560 ft 477 kts 113°
2026-05-09 03:53 41.36527 -76.01502 21826 ft 470 kts 113°
2026-05-09 03:53 41.35387 -75.97463 21101 ft 462 kts 113°
2026-05-09 03:54 41.34262 -75.93490 20417 ft 455 kts 113°
2026-05-09 03:54 41.33155 -75.89578 19739 ft 448 kts 113°
2026-05-09 03:54 41.32062 -75.85725 19044 ft 442 kts 113°
2026-05-09 03:54 41.30984 -75.81933 18392 ft 435 kts 113°
2026-05-09 03:55 41.29926 -75.78212 17970 ft 421 kts 113°
2026-05-09 03:55 41.28919 -75.74671 17965 ft 397 kts 113°
2026-05-09 03:55 41.27964 -75.71323 17964 ft 378 kts 114°
2026-05-09 03:55 41.27013 -75.68162 17953 ft 359 kts 118°
2026-05-09 03:56 41.26009 -75.65242 17961 ft 345 kts 117°
2026-05-09 03:56 41.25068 -75.62320 17515 ft 351 kts 116°
2026-05-09 03:56 41.24059 -75.59249 16638 ft 370 kts 117°
2026-05-09 03:56 41.23015 -75.56153 16384 ft 363 kts 118°
2026-05-09 03:57 41.21990 -75.53098 16033 ft 361 kts 117°
2026-05-09 03:57 41.20976 -75.50058 15693 ft 358 kts 117°
2026-05-09 03:57 41.19970 -75.47051 15230 ft 355 kts 118°
2026-05-09 03:57 41.18967 -75.44066 14801 ft 352 kts 118°
2026-05-09 03:58 41.18308 -75.42105 14518 ft 350 kts 118°
2026-05-09 03:58 41.17328 -75.39183 14119 ft 342 kts 118°
2026-05-09 03:58 41.16362 -75.36312 13529 ft 339 kts 118°
2026-05-09 03:58 41.15403 -75.33468 12921 ft 336 kts 118°
2026-05-09 03:59 41.14451 -75.30644 12295 ft 334 kts 118°
2026-05-09 03:59 41.13508 -75.27847 11688 ft 331 kts 118°
2026-05-09 03:59 41.12568 -75.25066 11105 ft 329 kts 118°
2026-05-09 03:59 41.11635 -75.22305 10520 ft 327 kts 118°
2026-05-09 04:00 41.10708 -75.19567 9973 ft 325 kts 118°
2026-05-09 04:00 41.09784 -75.16842 9364 ft 324 kts 118°
2026-05-09 04:00 41.08867 -75.14133 8815 ft 319 kts 118°
2026-05-09 04:00 41.07960 -75.11461 8275 ft 317 kts 118°
2026-05-09 04:01 41.07059 -75.08811 7740 ft 314 kts 118°
2026-05-09 04:01 41.06163 -75.06176 7225 ft 312 kts 118°
2026-05-09 04:01 41.05277 -75.03574 6793 ft 307 kts 118°
2026-05-09 04:01 41.04403 -75.01006 6274 ft 305 kts 118°
2026-05-09 04:02 41.03535 -74.98465 5984 ft 295 kts 117°
2026-05-09 04:02 41.02724 -74.96078 5983 ft 278 kts 118°
2026-05-09 04:02 41.01937 -74.93776 5994 ft 270 kts 118°
2026-05-09 04:02 41.01169 -74.91537 5993 ft 264 kts 118°
2026-05-09 04:03 41.00428 -74.89370 5975 ft 260 kts 118°
2026-05-09 04:03 40.99688 -74.87207 5998 ft 256 kts 118°
2026-05-09 04:03 40.98952 -74.85066 5989 ft 254 kts 118°
2026-05-09 04:03 40.98220 -74.82947 5992 ft 253 kts 118°
2026-05-09 04:04 40.97487 -74.80837 5972 ft 252 kts 119°
2026-05-09 04:04 40.96753 -74.78736 5992 ft 253 kts 120°
2026-05-09 04:04 40.95996 -74.76589 5995 ft 264 kts 120°
2026-05-09 04:04 40.95185 -74.74341 6004 ft 278 kts 121°
2026-05-09 04:05 40.94316 -74.71985 6005 ft 291 kts 120°
2026-05-09 04:05 40.93877 -74.69310 5990 ft 305 kts 95°
2026-05-09 04:05 40.93827 -74.66467 6012 ft 314 kts 91°
2026-05-09 04:05 40.93816 -74.63547 6014 ft 321 kts 91°
2026-05-09 04:06 40.93807 -74.60559 6009 ft 328 kts 90°
2026-05-09 04:06 40.93796 -74.57522 6015 ft 333 kts 91°
2026-05-09 04:06 40.93783 -74.54444 6009 ft 337 kts 90°
2026-05-09 04:06 40.93769 -74.51383 6007 ft 325 kts 90°
2026-05-09 04:07 40.93757 -74.48454 5628 ft 317 kts 90°
2026-05-09 04:07 40.93743 -74.45522 5041 ft 317 kts 90°
2026-05-09 04:07 40.93731 -74.42646 4499 ft 308 kts 90°
2026-05-09 04:07 40.93713 -74.39848 3997 ft 297 kts 90°
2026-05-09 04:08 40.93688 -74.37282 3979 ft 269 kts 90°
2026-05-09 04:08 40.93661 -74.34923 3987 ft 245 kts 91°
2026-05-09 04:08 40.93645 -74.32764 3985 ft 226 kts 90°
2026-05-09 04:08 40.93639 -74.30752 3987 ft 213 kts 90°
2026-05-09 04:09 40.93632 -74.28847 3989 ft 202 kts 90°
2026-05-09 04:09 40.93627 -74.27024 3992 ft 194 kts 90°
2026-05-09 04:09 40.93624 -74.25272 3992 ft 187 kts 90°
2026-05-09 04:09 40.93620 -74.23578 3989 ft 182 kts 90°
2026-05-09 04:10 40.93617 -74.21926 3990 ft 179 kts 90°
2026-05-09 04:10 40.93655 -74.20273 3970 ft 183 kts 79°
2026-05-09 04:10 40.94382 -74.18943 3836 ft 182 kts 23°
2026-05-09 04:10 40.95568 -74.18703 3950 ft 171 kts 355°
2026-05-09 04:11 40.96783 -74.18649 4035 ft 181 kts 357°
2026-05-09 04:11 40.98093 -74.18576 4025 ft 195 kts 358°
2026-05-09 04:11 40.99477 -74.18512 4078 ft 202 kts 357°
2026-05-09 04:11 41.00886 -74.18444 3890 ft 208 kts 358°
2026-05-09 04:12 41.02401 -74.18390 3521 ft 222 kts 358°
2026-05-09 04:12 41.03915 -74.18357 3466 ft 219 kts 358°
2026-05-09 04:12 41.05432 -74.18198 3248 ft 224 kts 14°
2026-05-09 04:12 41.06646 -74.16908 3017 ft 230 kts 58°
2026-05-09 04:13 41.07132 -74.14918 2983 ft 225 kts 77°
2026-05-09 04:13 41.07455 -74.12899 2878 ft 224 kts 81°
2026-05-09 04:13 41.07508 -74.10835 2753 ft 223 kts 93°
2026-05-09 04:13 41.06946 -74.08952 2466 ft 222 kts 131°
2026-05-09 04:14 41.05897 -74.07541 2512 ft 211 kts 138°
2026-05-09 04:14 41.04863 -74.06197 2501 ft 206 kts 137°
2026-05-09 04:14 41.03807 -74.04954 2481 ft 201 kts 147°
2026-05-09 04:14 41.02512 -74.04548 2427 ft 190 kts 187°
2026-05-09 04:15 41.01222 -74.04751 2503 ft 187 kts 186°
2026-05-09 04:15 40.99922 -74.04844 2492 ft 182 kts 185°
2026-05-09 04:15 40.98706 -74.04931 2476 ft 170 kts 185°
2026-05-09 04:15 40.97542 -74.05016 2380 ft 165 kts 185°
2026-05-09 04:16 40.96458 -74.05093 2166 ft 153 kts 185°
2026-05-09 04:16 40.95437 -74.05168 1968 ft 142 kts 185°
2026-05-09 04:16 40.94474 -74.05243 1781 ft 136 kts 185°
2026-05-09 04:16 40.93547 -74.05311 1604 ft 132 kts 184°
2026-05-09 04:17 40.92638 -74.05379 1428 ft 130 kts 184°
2026-05-09 04:17 40.91735 -74.05454 1251 ft 129 kts 184°
2026-05-09 04:17 40.90844 -74.05537 1092 ft 128 kts 183°
2026-05-09 04:17 40.89957 -74.05590 937 ft 128 kts 182°
2026-05-09 04:18 40.89068 -74.05661 780 ft 128 kts 183°
2026-05-09 04:18 40.88177 -74.05726 596 ft 128 kts 182°
2026-05-09 04:18 40.87285 -74.05784 419 ft 127 kts 183°
2026-05-09 04:18 40.86407 -74.05849 210 ft 125 kts 183°
2026-05-09 04:19 40.85553 -74.05913 21 ft 119 kts 183°
2026-05-09 04:19 40.84856 -74.05963 11 ft 72 kts 183°
2026-05-09 04:19 40.84513 -74.05990 14 ft 35 kts 184°
2026-05-09 04:19 40.84349 -74.06016 13 ft 19 kts 203°
2026-05-09 04:20 40.84272 -74.06104 11 ft 5 kts 230°
2026-05-09 04:20 40.84251 -74.06137 11 ft 5 kts 233°
2026-05-09 04:20 40.84238 -74.06202 11 ft 11 kts 272°
2026-05-09 04:20 40.84246 -74.06312 15 ft 12 kts 273°
2026-05-09 04:21 40.84249 -74.06417 14 ft 11 kts 271°
2026-05-09 04:21 40.84223 -74.06474 14 ft 6 kts 204°
2026-05-09 04:21 40.84152 -74.06523 14 ft 6 kts 210°
2026-05-09 04:22 40.84148 -74.06556 14 ft 3 kts 323°
2026-05-09 04:22 40.84162 -74.06552 14 ft 0 kts 27°